This is the latest recevied weather packets stored in our database for station/object DB0MI. If no packets are shown the sender has not sent any weather packets the latest 1 day(s).
| Time | Temp. | Humidity | Pressure | Rain* | Wind** | Luminosity | Snow |
|---|---|---|---|---|---|---|---|
| 1777970516 | 20.56° C | 64% | 1008.1 hPa | 0 mm | 0 m/s | - | - |
| 1777969905 | 20° C | 67% | 1008.3 hPa | 0 mm | 0 m/s | - | - |
| 1777969305 | 18.33° C | 71% | 1008.2 hPa | 0 mm | 0 m/s | - | - |
| 1777968705 | 16.11° C | 74% | 1008.4 hPa | 0 mm | 0 m/s | - | - |
| 1777968106 | 15.56° C | 74% | 1008.5 hPa | 0 mm | 0 m/s | - | - |
| 1777967505 | 15° C | 74% | 1008.7 hPa | 0 mm | 0 m/s | - | - |
| 1777966905 | 15° C | 74% | 1008.7 hPa | 0 mm | 0 m/s | - | - |
| 1777966305 | 15° C | 75% | 1008.9 hPa | 0 mm | 0 m/s | - | - |
| 1777965705 | 15° C | 75% | 1008.8 hPa | 0 mm | 0 m/s | - | - |
| 1777965105 | 15° C | 75% | 1009 hPa | 0 mm | 0 m/s | - | - |
| 1777964505 | 14.44° C | 75% | 1009.1 hPa | 0 mm | 0 m/s | - | - |
| 1777963905 | 14.44° C | 76% | 1009 hPa | 0 mm | 0 m/s | - | - |
| 1777963305 | 14.44° C | 77% | 1009.1 hPa | 0 mm | 0 m/s | - | - |
| 1777962706 | 14.44° C | 76% | 1009.1 hPa | 0 mm | 0 m/s | - | - |
| 1777962105 | 14.44° C | 76% | 1008.9 hPa | 0 mm | 0 m/s | - | - |
| 1777961505 | 14.44° C | 77% | 1009 hPa | 0 mm | 0 m/s | - | - |
| 1777960906 | 13.89° C | 78% | 1009 hPa | 0 mm | 0 m/s | - | - |
| 1777960305 | 13.89° C | 78% | 1009 hPa | 0 mm | 0 m/s | - | - |
| 1777959706 | 13.33° C | 79% | 1008.9 hPa | 0 mm | 0 m/s | - | - |
| 1777959105 | 12.78° C | 79% | 1008.8 hPa | 0 mm | 0 m/s | - | - |
| 1777958505 | 12.78° C | 79% | 1009 hPa | 0 mm | 0 m/s | - | - |
| 1777957906 | 12.78° C | 79% | 1008.8 hPa | 0 mm | 0 m/s | - | - |
| 1777957306 | 12.78° C | 79% | 1008.9 hPa | 0 mm | 0 m/s | - | - |
| 1777956706 | 12.78° C | 79% | 1008.9 hPa | 0 mm | 0 m/s | - | - |
| 1777956106 | 12.22° C | 79% | 1009.1 hPa | 0 mm | 0 m/s | - | - |
* Rain latest hour (hover to see other rain measurements)
** Current wind speed in m/s (hover to see current wind gust speed)